YAOGAN-3

Last updated on Mon Jun 22 2026 00:02:51 GMT+0000 (Coordinated Universal Time)

1 32289U 07055A 26172.55727374 .00001742 00000+0 18283-3 0 9997 2 32289 97.8147 202.3919 0001754 82.7386 277.4032 14.90793867 6521
UTC large
Height (km)
Speed (km/s)
/
Latitude / Longitude
Inclination (degrees)
Orbital Period (minutes)
Azimuth
Elevation
Range (km)
Doppler Factor

Next 0 passes for location: London (51.5072 / 0.1276)

No passes found over London.
YAOGAN-3